Dewpoint
53 53 53 53 53 54 54 54 55 55 55 55 55 55 55 55 55 55 55 55 54 55 56 55 55 55 48 43 44 50 54 55 54 53 49 44 37 40 36 29 30 28 29 29 30 30 27
53 53 53 53 54 53 54 54 54 55 55 55 55 55 55 55 55 56 56 56 54 54 55 53 53 54 44 41 48 50 51 52 53 51 48 39 39 40 31 29 28 29 30 29 29 27 27
54 53 53 53 54 54 53 53 55 55 55 55 55 55 55 55 55 55 55 54 55 55 55 53 53 44 40 40 47 51 50 51 50 50 43 42 39 39 31 28 31 30 25 28 29 27 25
55 55 55 54 53 54 54 54 54 55 55 55 55 55 55 55 55 55 55 55 56 56 55 52 54 43 39 45 48 45 48 45 47 45 42 43 37 35 31 30 29 26 27 22 26 29 24
55 55 55 55 55 54 54 54 54 55 55 55 55 55 55 55 54 55 56 56 55 56 56 55 41 37 38 49 43 44 45 41 38 39 45 33 32 30 30 28 24 25 23 22 24 29 27
54 55 55 54 55 55 54 54 54 54 54 55 55 55 55 55 55 55 55 55 55 49 45 41 37 34 38 38 40 40 40 41 37 37 36 32 32 27 27 24 20 20 23 22 21 26 26
54 54 53 54 54 54 54 54 53 53 54 54 54 54 54 55 55 55 51 44 39 36 38 34 35 36 37 40 42 38 39 38 35 30 26 29 26 23 23 24 20 22 21 23 26 28 25
53 53 53 54 54 54 54 53 54 54 53 53 54 54 54 54 53 53 45 41 42 42 32 37 37 37 37 39 33 35 39 32 29 27 28 24 21 24 29 29 23 23 22 23 25 27 19
52 52 53 53 53 54 54 54 53 53 53 53 53 54 53 53 53 45 42 42 45 44 32 32 36 35 36 36 34 34 37 35 28 26 26 22 26 29 30 28 24 24 20 22 18 26 25
52 53 52 53 53 53 54 55 55 53 53 53 53 53 53 53 42 41 41 45 46 44 27 28 32 33 35 37 29 36 37 34 30 27 29 30 32 30 30 29 26 22 28 26 26 20 16
52 53 53 53 53 54 55 55 55 53 53 53 53 53 53 50 42 41 43 45 42 36 14 27 32 36 35 30 31 30 36 33 30 30 28 29 31 28 29 29 30 24 29 26 26 24 16
53 53 53 53 54 55 55 55 55 55 53 52 53 51 51 44 44 45 46 45 39 25 12 27 33 31 29 30 31 32 33 34 34 31 31 31 33 32 31 31 30 30 26 27 29 23 13
52 53 53 53 54 55 55 55 55 55 53 51 50 51 48 46 42 46 44 39 27 18 25 26 30 32 30 28 28 30 29 29 28 19 24 28 31 33 33 29 30 28 26 18 14 15 11
51 52 53 53 54 55 55 55 55 55 54 52 51 49 48 46 46 45 40 30 19 24 26 30 31 30 27 28 27 29 29 27 30 29 26 18 13 31 34 31 29 26 27 18 7 17 18
52 52 53 53 54 54 54 55 55 54 53 52 50 46 42 42 46 44 33 25 22 26 31 30 29 25 25 27 26 27 28 28 30 30 24 25 26 32 34 35 32 29 26 27 23 21 17
52 53 53 53 53 53 53 55 55 54 53 51 44 42 41 44 46 39 33 28 29 34 35 32 24 25 24 25 25 25 26 30 31 31 30 29 24 30 33 34 34 32 30 18 22 10 15
52 52 53 53 53 53 54 54 55 54 53 48 42 34 41 45 44 36 28 27 32 34 35 32 30 27 25 25 24 24 27 30 31 30 30 29 27 27 30 29 27 30 28 29 27 25 19
53 52 53 53 54 53 54 54 54 54 52 45 39 31 40 43 33 33 30 32 36 34 35 33 32 30 27 25 25 28 30 31 33 32 29 30 29 24 22 31 32 30 25 27 18 19 24
53 52 53 54 54 53 54 54 54 54 53 40 36 36 42 37 27 29 32 33 35 33 33 32 31 31 29 25 22 27 32 35 35 34 32 31 25 19 19 23 28 29 30 30 28 27 23
53 53 54 54 54 54 54 53 53 53 53 43 36 31 34 35 33 30 29 30 31 35 33 32 30 30 27 25 25 24 30 34 35 35 39 34 26 20 13 17 27 26 28 30 28 22 24
52 53 54 54 54 54 54 53 53 52 52 41 36 31 32 28 29 29 30 29 28 28 32 32 29 29 26 22 22 21 30 33 35 38 34 29 20 22 23 24 24 23 23 27 28 27 24
51 53 53 54 54 54 53 53 53 52 50 39 32 32 34 31 31 30 29 26 28 29 29 29 28 29 27 23 23 19 23 28 28 33 31 31 17 25 22 23 23 22 23 23 24 28 28
52 53 53 53 53 54 53 53 53 52 47 39 39 37 37 36 31 30 26 26 29 30 32 32 30 29 28 30 31 31 31 30 31 32 31 30 25 23 18 24 21 13 16 21 22 22 22
53 52 52 53 53 53 53 53 53 52 47 41 40 39 36 33 31 30 28 30 30 31 30 31 31 30 32 35 33 33 32 30 29 29 31 29 26 25 21 20 7 16 19 19 21 20 22
53 53 52 52 52 53 53 52 52 52 50 43 41 39 37 32 34 30 29 30 29 29 27 29 32 33 34 32 26 22 23 21 27 30 30 29 27 23 20 19 20 17 18 18 18 17 20
53 53 53 52 52 52 52 52 53 53 50 45 41 41 39 35 31 29 27 29 29 27 28 28 33 35 33 31 26 18 18 19 20 27 30 29 28 24 23 20 16 16 20 22 21 15 25
54 53 53 53 52 52 52 52 52 52 51 47 44 41 40 36 37 33 32 30 31 30 31 29 32 33 34 28 24 23 22 19 18 21 24 27 26 25 24 22 23 25 24 24 14 15 25
54 53 53 52 52 52 52 52 52 52 52 49 46 42 41 37 38 37 33 32 33 33 31 32 33 33 31 28 27 27 24 22 19 21 24 24 23 23 24 23 20 26 24 18 22 27 26
54 53 53 52 52 52 51 52 52 52 53 50 45 44 43 42 39 41 41 40 37 36 35 33 33 32 32 29 29 28 24 23 21 19 25 20 23 23 25 24 26 26 26 27 28 28 28
Lifted_Index
11 11 11 11 10 10 10 10 10 9 9 8 7 6 5 5 4 4 4 3 2 1 1 1 1 1 1 2 2 2 1 0 0 0 0 0 1 2 3 5 6 7 7 7 7 7 7
11 11 11 11 10 10 10 10 10 9 9 8 7 6 5 5 5 4 4 3 3 2 1 1 1 2 2 2 2 2 1 1 1 1 1 1 1 2 3 5 6 7 7 7 7 7 7
10 10 11 11 10 10 10 10 10 9 9 8 7 6 6 5 5 5 5 4 3 2 2 2 2 3 3 3 2 2 1 1 2 2 2 1 1 2 4 5 6 6 6 7 7 7 7
10 10 10 10 10 10 9 9 9 9 9 8 8 7 6 6 5 5 5 5 4 3 3 3 4 4 4 3 3 2 2 2 3 3 2 1 2 3 4 5 6 6 6 6 6 7 7
9 9 9 10 9 9 9 9 9 9 9 9 8 7 6 6 6 6 5 5 5 4 4 4 5 4 4 3 3 3 4 3 3 3 2 2 2 3 5 5 5 6 6 6 6 7 7
9 9 9 9 9 9 9 9 9 9 9 9 8 8 7 6 6 6 6 6 5 5 5 5 5 4 4 4 4 4 4 4 3 3 3 3 3 4 5 5 5 5 5 5 6 7 7
10 10 10 10 9 9 9 9 9 9 9 9 9 8 8 7 6 6 6 5 5 6 5 5 4 4 4 4 4 4 4 4 3 3 2 2 3 4 5 6 5 5 4 4 5 6 6
10 10 10 10 10 9 9 9 9 9 10 9 9 9 8 7 7 6 6 5 5 5 5 4 4 3 3 3 3 3 3 3 3 2 2 2 3 4 5 5 5 5 4 4 5 5 6
10 10 10 10 10 9 9 9 9 9 10 10 9 9 8 8 7 7 6 6 6 5 4 4 3 3 3 3 3 3 3 3 3 2 2 3 3 4 5 5 5 4 4 4 4 4 4
11 11 10 10 10 10 9 9 9 9 10 10 10 9 9 9 8 8 8 8 7 6 4 4 3 3 3 3 3 3 3 3 3 2 2 3 4 4 4 5 4 4 4 4 4 3 3
10 10 10 10 10 9 9 8 9 9 10 10 10 10 9 9 9 9 9 9 8 5 4 3 3 3 3 3 3 3 3 3 3 2 3 3 4 4 4 5 4 4 4 4 4 3 2
11 10 10 10 9 9 9 9 8 9 10 10 10 10 10 9 9 9 9 9 7 5 4 4 4 4 4 3 3 3 3 3 3 3 3 3 4 5 5 5 5 5 5 4 3 2 2
11 11 10 10 9 9 9 9 8 9 10 10 10 10 10 9 10 10 9 8 6 4 5 5 4 4 4 4 3 3 3 3 3 3 2 3 4 5 5 6 6 6 4 3 2 1 1
11 11 10 10 9 9 9 8 8 9 9 10 10 10 9 9 9 9 8 6 5 5 5 5 5 5 4 4 4 4 4 3 3 3 2 2 3 5 6 6 6 6 5 3 2 1 1
11 11 10 10 10 9 9 8 8 9 9 10 9 9 8 8 8 8 7 5 5 6 6 6 5 5 5 4 4 4 4 4 4 4 3 2 3 5 6 7 7 6 6 5 4 3 2
11 11 10 10 10 10 9 9 8 8 9 9 8 8 8 7 7 7 6 5 6 7 7 7 6 5 5 5 5 5 5 5 5 5 4 3 3 4 6 6 6 6 6 5 5 3 2
11 10 10 10 10 10 9 9 8 8 8 8 8 7 7 7 7 7 6 6 7 8 8 7 6 6 6 6 5 5 5 5 6 6 5 5 4 4 5 5 5 5 5 5 4 3 2
11 10 10 9 9 10 9 9 9 9 8 8 7 7 7 7 6 6 6 7 8 8 8 8 7 7 7 6 6 6 6 6 7 7 7 6 5 4 4 5 6 6 5 5 5 4 4
10 10 10 9 9 9 9 9 9 9 9 8 7 7 7 7 6 6 6 7 8 8 9 8 8 8 8 7 6 6 7 8 8 8 8 8 6 5 4 6 6 6 6 7 6 5 4
10 10 10 9 9 10 10 10 10 9 9 8 7 7 7 7 6 6 6 6 7 8 9 9 9 9 8 7 7 7 7 8 9 9 9 9 7 5 5 6 6 6 7 7 6 5 4
10 10 10 10 10 10 10 10 10 10 9 9 8 8 7 7 7 7 6 6 6 7 8 8 9 9 8 7 7 7 8 9 9 10 10 9 7 6 6 6 7 6 6 7 6 5 5
11 10 10 10 10 10 11 11 11 10 10 10 9 9 8 7 7 7 7 6 6 6 7 7 7 8 8 7 8 8 9 9 9 9 10 9 7 6 6 7 7 6 6 6 7 7 7
11 11 11 11 11 11 11 11 11 11 10 10 10 10 9 8 8 7 7 7 7 7 7 7 7 7 7 8 9 9 9 9 9 9 9 8 7 6 6 6 6 6 6 7 8 8 8
11 11 11 11 11 11 11 11 11 11 11 10 10 10 9 9 8 8 8 8 8 8 7 7 7 7 7 8 8 8 8 8 9 9 9 8 7 6 5 5 5 6 7 8 8 8 9
10 11 11 11 11 11 11 11 11 11 11 11 10 10 10 9 9 9 9 9 8 8 8 8 8 8 7 7 7 6 6 6 7 8 8 8 7 6 5 4 4 6 7 8 8 8 8
9 10 10 11 11 11 11 11 11 11 11 11 11 10 10 10 9 9 9 9 9 9 9 8 8 8 8 7 6 5 5 5 5 6 7 7 7 6 5 4 4 5 7 8 7 7 7
8 8 9 10 11 11 11 11 11 11 11 11 11 11 10 10 10 9 9 9 9 9 9 9 9 8 8 8 7 6 5 6 5 5 6 6 6 5 5 4 4 6 7 8 7 7 8
7 7 8 9 9 10 10 10 10 10 10 10 11 11 10 10 10 9 9 9 9 9 9 9 8 8 8 8 7 7 7 7 6 6 6 6 5 5 5 5 5 7 7 7 7 8 8
7 7 7 8 9 9 9 9 10 10 9 10 10 11 10 10 10 9 9 9 9 9 9 8 8 8 8 8 7 7 7 7 7 6 6 6 6 6 6 5 6 7 8 8 8 8 8